Regional Weather Roundup
Issued by NWS Cleveland, OH

Home | Current Version | Previous Version | Graphics & Text | Print | Product List | Glossary On
Versions: 1 2 3 4 5 6 7 8 9 10 11 12 13 14 15 16 17 18 19 20 21 22 23 24 25 26 27 28 29 30 31 32 33 34 35 36 37 38 39 40 41 42 43 44 45 46 47 48 49 50
000
ASUS41 KCLE 311510
RWRCLE
OHIO REGIONAL WEATHER ROUNDUP
NATIONAL WEATHER SERVICE WILMINGTON, OH
1100 AM EDT FRI OCT 31 2014

NOTE: "FAIR" INDICATES FEW OR NO CLOUDS BELOW 12,000 FEET WITH NO
SIGNIFICANT WEATHER AND/OR OBSTRUCTIONS TO VISIBILITY.

OHZ001>008-015>018-024>027-034-035-043-044-311600-
   NORTHWEST OHIO

CITY           SKY/WX    TMP DP  RH WIND       PRES   REMARKS
DEFIANCE       LGT RAIN  43  39  86 NW10      29.92S
FINDLAY        LGT RAIN  44  39  82 W12       29.90S
TOLEDO EXPRESS LGT RAIN  43  41  93 W6        29.89F FOG
TOLEDO METCALF LGT RAIN  43  39  86 W8        29.90F
LIMA           NOT AVBL
$$

OHZ009>014-019>023-028>033-038-089-311600-
   NORTHEAST OHIO

CITY           SKY/WX    TMP DP  RH WIND       PRES   REMARKS
CLE-HOPKINS    CLOUDY    46  36  68 S8        29.93F
CLE-LAKEFRONT  CLOUDY   N/A N/A N/A SW10      29.93F
CUY CO. ARPT   CLOUDY    46  39  76 SW8       29.92F
LORAIN-ELYRIA  CLOUDY    45  36  70 S9        29.91F
ASHTABULA      CLOUDY    47  38  71 S9        29.92F
AKRON-CANTON   CLOUDY    46  36  68 SW9       29.92F
WOOSTER        CLOUDY    47  36  65 SW9       29.92F
MANSFIELD      CLOUDY    45  36  70 S9        29.90F
YOUNGSTOWN     CLOUDY    45  39  79 S5        29.92F
$$

OHZ042-051>053-060>062-070>072-077>081-311600-
  SOUTHWEST OHIO

CITY           SKY/WX    TMP DP  RH WIND       PRES   REMARKS
CINC-COVINGTON CLOUDY    48  40  73 W7        29.95F
CINC-LUNKEN    CLOUDY    47  43  86 S6        29.97F
HAMILTON       CLOUDY    46  43  89 W5        29.96F
DAYTON         LGT RAIN  46  38  73 W7        29.94F
WRIGHT-PAT AFB CLOUDY    45  39  81 SW6       29.93F
DAYTON GENERAL CLOUDY    45  39  79 SW6       29.93F
WILMINGTON     CLOUDY    46  39  76 SW8       29.93F
$$

OHZ036-037-039>041-045>050-054>059-063>069-073>076-082>088-311600-
  CENTRAL AND SOUTHEAST OHIO

CITY           SKY/WX    TMP DP  RH WIND       PRES   REMARKS
COLUMBUS       CLOUDY    44  38  79 S7        29.93F
OSU AIRPORT    CLOUDY    46  39  76 S7        29.92F
BOLTON FIELD   CLOUDY    45  39  81 S6        29.94F
RICKENBACK AFB CLOUDY    44  40  86 S7        29.94F
NEWARK         CLOUDY    45  38  76 SW8       29.93F
MARION         CLOUDY    45  36  70 S8        29.91F
LANCASTER      CLOUDY    45  40  82 S7        29.94F
ZANESVILLE     LGT RAIN  43  39  86 S5        29.95F
NEW PHILLY     LGT RAIN  45  39  79 S3        29.95F
$$



USA.gov is the U.S. government's official web portal to all federal, state and local government web resources and services.